#timestamp,LO_Frequency,Hit,StdDev 
1567368015.8,286047002.0,N
1567368035.6,286047002.1,N
1567368055.5,286047002.0,N
1567368075.3,286047001.5,N
1567368095.1,286047004.3,Y
1567368115.9,286047000.0,P
1567368135.7,286047002.4,N
1567368155.5,286046999.7,N
1567368175.4,286047000.6,N
1567368195.2,286046998.1,N
1567368215.1,286046998.6,N
1567368216.0,286046998.6,N
1567368235.8,286046998.1,N
1567368255.6,286047001.1,N
1567368275.5,286046998.3,N
1567368295.3,286046998.6,N
1567368315.2,286047000.7,N
1567368335.9,286047001.2,N
1567368355.7,286047001.1,N
1567368375.6,286047000.4,N
1567368395.4,286047001.1,N
1567368415.2,286047000.8,N
1567368435.1,286047001.1,N
1567368436.0,286047001.1,N
1567368455.8,286046998.1,N
1567368475.7,286046999.6,N
1567368495.5,286046997.0,N
1567368515.3,286046996.8,N
1567368535.2,286046996.6,N
1567368555.0,286046996.6,N
1567368555.9,286046996.6,N
1567368575.8,286046997.4,N
1567368595.6,286046995.6,N
1567368615.4,286046994.9,N
1567368635.3,286046994.9,N
1567368655.1,286046994.9,N
1567368675.9,286046997.3,N
1567368695.7,286046994.9,N
1567368715.5,286046997.3,N
1567368735.4,286046996.8,N
1567368755.2,286046997.5,N
1567368775.1,286046997.7,N
1567368776.0,286046997.7,N
1567368795.8,286046996.9,N
1567368815.6,286046996.5,N
1567368835.5,286046999.5,N
1567368855.3,286046999.6,N
1567368875.2,286046996.5,N
1567368895.9,286046999.0,N
1567368915.7,286046996.5,N
1567368935.6,286046996.6,N
1567368955.4,286046997.4,N
1567368975.2,286046997.0,N
1567368995.1,286046995.6,Y
1567368996.0,286046995.6,P
1567369015.8,286046996.6,P
1567369035.7,286046996.9,P
1567369055.5,286046999.6,N
1567369075.3,286046999.4,N
1567369095.2,286046996.9,N
1567369115.0,286046999.6,N
1567369115.9,286046999.6,N
1567369135.8,286046999.5,N
1567369155.6,286046998.7,N
1567369175.4,286046998.4,N
1567369195.3,286046999.5,N
1567369215.1,286046997.4,N
1567369235.9,286046999.5,N
1567369255.7,286046997.2,N
1567369275.5,286046997.1,N
1567369295.4,286046999.4,N
1567369315.2,286046999.5,N
1567369335.1,286046996.9,N
1567369336.0,286046996.9,N
1567369355.8,286046998.4,N
1567369375.7,286047000.8,N
1567369395.5,286047000.9,N
1567369415.3,286046999.8,N
1567369435.2,286047002.6,N
1567369455.9,286046999.9,N
1567369475.7,286047000.2,N
1567369495.6,286047002.4,N
1567369515.4,286047002.2,N
1567369535.3,286047000.0,N
1567369555.1,286047000.2,N
1567369556.0,286047000.2,N
1567369575.8,286047000.0,N
1567369595.7,286046999.8,N
1567369615.5,286046998.9,N
1567369635.3,286046998.9,N
1567369655.2,286047000.9,N
1567369675.0,286046998.1,N
1567369675.9,286046998.1,N
1567369695.8,286047002.0,N
1567369715.6,286047002.2,N
1567369735.4,286047000.5,N
1567369755.3,286047000.9,N
1567369775.1,286046999.8,N
1567369795.9,286047002.8,N
1567369815.7,286047001.9,N
1567369835.5,286047001.4,N
1567369855.4,286047001.7,N
1567369875.2,286047002.3,N
1567369895.0,286046999.9,N
1567369896.0,286046999.9,N
1567369915.8,286047002.4,N
1567369935.6,286047002.7,N
1567369955.5,286047002.4,N
1567369975.3,286047002.7,N
1567369995.1,286047002.5,N
1567370015.9,286047002.1,N
1567370035.7,286047000.2,N
1567370055.6,286047002.3,N
1567370075.4,286047002.2,N
1567370095.2,286047002.5,N
1567370115.1,286047002.6,N
1567370116.0,286047002.6,N
1567370135.8,286047002.7,N
1567370155.6,286047002.6,N
1567370175.5,286047002.1,N
1567370195.3,286047002.6,N
1567370215.2,286047001.9,N
1567370235.9,286047001.4,N
1567370255.7,286047001.5,N
1567370275.6,286047001.3,N
1567370295.4,286047004.2,Y
1567370315.3,286047002.7,P
1567370335.1,286047000.0,N
1567370336.0,286047000.0,N
1567370355.8,286047002.8,N
1567370375.7,286047002.4,N
1567370395.5,286046999.8,N
1567370415.3,286047002.2,N
1567370435.2,286047001.6,N
1567370455.0,286047004.4,Y
1567370455.9,286047004.4,P
1567370475.8,286046999.7,N
1567370495.6,286046999.9,N
1567370515.4,286047000.3,N
1567370535.3,286047000.5,N
1567370555.1,286047002.3,N
1567370575.9,286046999.9,N
1567370595.7,286047000.7,N
1567370615.5,286047000.8,N
1567370635.4,286047000.2,N
1567370655.2,286047002.4,N
1567370675.1,286047002.1,N
1567370676.0,286047002.1,N
1567370695.8,286047000.2,N
1567370715.6,286047000.5,N
1567370735.5,286046998.1,N
1567370755.3,286047000.9,N
1567370775.1,286046999.9,N
1567370795.9,286047000.9,N
1567370815.7,286047000.7,N
1567370835.6,286046999.8,N
1567370855.4,286047000.2,N
1567370875.2,286047001.1,N
1567370895.1,286047001.1,N
1567370896.0,286047001.1,N
1567370915.8,286046998.1,N
1567370935.7,286046998.2,N
1567370955.5,286047000.8,N
1567370975.3,286046998.5,N
1567370995.2,286047001.1,N
1567371015.0,286047000.7,N
1567371015.9,286047000.7,N
1567371035.7,286047000.1,N
1567371055.6,286047002.4,N
1567371075.4,286047000.2,N
1567371095.3,286047000.1,N
1567371115.1,286047000.1,N
1567371116.0,286047000.1,N
1567371135.8,286047000.8,N
1567371155.7,286047000.5,N
1567371175.5,286047000.4,N
1567371195.4,286046999.9,N
1567371215.2,286047002.6,N
1567371235.0,286047001.9,N
1567371255.3,286047002.5,N
1567371275.1,286047001.3,N
1567371295.8,286047002.4,N
1567371315.7,286047002.3,N
1567371335.5,286047000.2,N
1567371355.4,286047000.1,N
1567371375.2,286047000.1,N
1567371395.0,286047000.8,N
1567371395.9,286047000.8,N
1567371415.8,286047001.2,N
1567371435.6,286047001.0,N
1567371455.4,286047000.8,N
1567371475.3,286047000.7,N
1567371495.1,286047000.5,N
1567371515.9,286046998.5,N
1567371535.7,286047000.6,N
1567371555.5,286046998.1,N
1567371575.4,286046998.2,N
1567371595.2,286047001.2,N
